Simultaneous Nadir Overpasses (SNOs) Predictions

Prediction of SNOs over PacNW region [( 10.00, 139.50) to ( 22.70, 165.60)] between AQUA and NPP Satellites:

Table of predicted SNOs over PacNW region for the next 30.0 days since TLE Epoch: 5/6/2023
Index Date (AQUA) Time (AQUA) AQUA Lat,Lon Date (NPP) Time (NPP) NPP Lat,Lon Distance(km) Time Diff (sec)
1 05/10/2023 14:57:38 13.45, 164.59 05/10/2023 14:56:25 14.35, 159.95 510.90 73
2 05/10/2023 16:33:56 22.59, 141.99 05/10/2023 16:35:14 23.79, 136.86 540.56 78
3 05/23/2023 15:51:36 20.74, 152.39 05/23/2023 15:51:04 21.65, 147.48 519.33 32
4 05/26/2023 04:10:33 22.67, 141.07 05/26/2023 04:07:04 23.59, 136.20 508.85 209
